Overview Statistics Trail Chart Weather Telemetry Raw packets
 

This is the latest recevied weather packets stored in our database for station/object KF7SOJ. If no packets are shown the sender has not sent any weather packets the latest 10 day(s).

<< 27 28 29 30 31 32 33 >>
Time Temp. Humidity Pressure Rain* Wind** Luminosity Snow
1788429331 15.56° C 51% 927 hPa 0 mm - 0 W/m² -
1788429026 15.56° C 50% 926.9 hPa 0 mm - 0 W/m² -
1788428725 15.56° C 50% 926.8 hPa 0 mm - 0 W/m² -
1788428421 16.11° C 50% 926.9 hPa 0 mm - 0 W/m² -
1788428121 16.11° C 48% 926.7 hPa 0 mm - 0 W/m² -
1788427817 15.56° C 50% 926.7 hPa 0 mm - 0 W/m² -
1788427517 15.56° C 53% 927.2 hPa 0 mm - 0 W/m² -
1788427217 15.56° C 54% 926.8 hPa 0 mm - 0 W/m² -
1788426915 15.56° C 54% 926.7 hPa 0 mm - 0 W/m² -
1788426615 15.56° C 55% 926.8 hPa 0 mm - 0 W/m² -
1788426311 15.56° C 54% 926.2 hPa 0 mm - 0 W/m² -
1788426009 15.56° C 52% 926.8 hPa 0 mm - 0 W/m² -
1788425708 15.56° C 51% 926.5 hPa 0 mm - 0 W/m² -
1788425404 15.56° C 51% 926.4 hPa 0 mm - 0 W/m² -
1788425102 16.11° C 51% 926.8 hPa 0 mm - 0 W/m² -
1788424796 16.11° C 51% 926.4 hPa 0 mm - 0 W/m² -
1788424493 16.67° C 48% 926.7 hPa 0 mm - 0 W/m² -
1788424192 16.11° C 48% 926.2 hPa 0 mm - 0 W/m² -
1788423887 16.11° C 49% 926.2 hPa 0 mm - 0 W/m² -
1788423581 16.11° C 50% 926 hPa 0 mm - 0 W/m² -
1788423277 16.11° C 50% 926.3 hPa 0 mm - 0 W/m² -
1788422973 16.67° C 48% 926.2 hPa 0 mm - 0 W/m² -
1788422669 16.67° C 48% 926 hPa 0 mm - 0 W/m² -
1788422365 16.67° C 49% 926.1 hPa 0 mm - 0 W/m² -
1788422060 16.67° C 47% 926.2 hPa 0 mm - 0 W/m² -

* Rain latest hour (hover to see other rain measurements)
** Current wind speed in m/s (hover to see current wind gust speed)